Temp
11 11 11 11 10 10 10 10 10 10 9 7 8 8 8 8 8 10 16 15 16 20 23 24 25 25 25 26 26 28 28 29 30 29 30 31 31 28 20 24 32 31 25 25 31 32 32 38 36 35 36 38 39 39
11 12 12 12 11 11 10 10 10 10 10 10 8 8 8 8 8 8 15 15 13 15 21 19 19 20 23 25 26 28 28 28 30 30 30 31 27 18 19 21 33 31 25 19 20 24 21 34 34 34 36 35 35 35
11 11 11 11 12 12 12 11 11 10 10 10 10 8 8 8 8 8 12 13 13 16 21 24 26 24 22 22 23 25 27 28 29 29 28 28 26 26 23 25 30 22 25 21 18 18 20 32 33 34 34 33 34 34
11 11 11 11 11 11 12 12 11 11 10 10 8 8 8 8 8 8 9 12 12 16 19 26 25 24 24 24 24 23 25 27 28 29 27 28 27 28 29 30 24 24 19 21 20 20 27 32 32 32 32 32 33 32
11 11 11 11 11 11 11 12 12 11 11 8 8 9 8 8 8 8 8 9 11 15 19 21 23 25 26 25 24 24 24 25 26 27 27 27 29 25 25 30 29 29 28 26 26 28 29 31 31 31 31 31 31 30
11 11 11 11 11 11 11 12 11 10 10 10 9 10 9 8 8 9 17 13 9 10 13 21 25 25 26 25 24 24 25 25 26 26 27 28 29 26 28 27 30 32 32 31 30 29 31 31 31 31 30 30 30 30
11 11 11 11 11 11 11 12 11 10 10 10 10 10 10 8 8 14 15 11 10 9 13 19 24 27 25 26 26 25 25 25 26 26 26 27 29 28 28 28 30 29 30 29 30 29 29 30 30 30 30 30 27 30
11 11 11 11 11 11 11 11 11 10 10 10 10 8 8 8 9 13 11 10 10 11 15 17 23 26 26 26 25 26 25 25 26 26 27 28 28 28 27 28 29 30 30 29 29 29 30 29 29 29 30 29 29 29
11 11 11 11 11 11 11 11 11 11 10 9 10 9 10 12 13 11 9 9 9 9 13 19 22 21 24 26 21 25 26 25 27 25 27 28 28 27 28 28 28 29 29 29 29 29 29 29 28 28 29 29 29 29
11 11 11 11 10 11 11 11 11 11 11 10 9 14 15 14 10 9 8 10 10 12 11 16 22 22 26 24 20 23 23 25 24 27 28 26 28 28 28 27 26 26 26 27 26 27 27 27 28 29 29 29 29 29
11 11 11 11 10 11 11 10 10 10 13 14 19 20 15 11 10 12 15 15 14 15 13 15 18 19 24 21 19 22 22 22 22 24 26 26 27 24 25 25 25 25 25 25 26 27 27 28 28 29 29 29 28 28
11 11 11 11 10 10 11 10 9 11 13 11 10 11 14 17 20 19 19 17 17 15 14 14 17 19 21 21 20 24 23 23 22 24 21 22 20 23 24 24 24 24 25 25 26 26 27 27 28 29 29 28 28 26
11 11 11 11 10 11 10 9 9 7 8 10 11 17 19 20 16 19 20 19 16 17 19 17 17 18 19 20 20 21 22 24 26 23 24 21 21 23 23 23 24 25 25 25 26 26 26 26 27 28 28 27 26 23
11 12 11 11 11 10 10 10 8 8 9 18 20 14 20 19 20 21 19 19 19 19 18 18 18 17 18 17 18 20 22 24 22 22 22 20 21 22 22 23 23 24 24 25 25 26 26 26 27 28 27 26 25 24
11 11 11 11 11 10 10 10 9 10 16 20 20 18 20 22 19 20 20 20 18 19 20 18 20 19 20 20 22 23 23 22 23 21 20 20 21 21 21 21 22 22 23 23 23 24 26 27 27 27 26 25 24 23
11 12 12 12 11 11 10 8 9 11 16 19 20 21 22 22 22 21 23 21 22 21 20 21 20 19 19 20 21 22 23 22 20 21 20 20 20 19 19 20 20 20 21 23 23 22 24 26 26 26 25 24 23 22
11 12 12 11 11 10 8 9 10 13 18 20 22 23 24 23 21 23 22 19 21 21 18 18 18 19 21 20 20 20 19 20 21 22 22 20 20 19 19 19 19 20 20 22 21 20 22 22 23 22 23 23 23 22
11 13 12 11 10 10 12 11 16 19 18 22 22 22 24 24 22 22 19 18 19 19 17 16 15 18 19 19 19 18 20 22 22 22 22 21 20 20 19 19 20 20 21 21 21 20 20 22 21 20 22 22 22 21
12 12 11 11 9 11 18 18 17 19 23 25 24 23 24 23 23 21 19 18 18 16 15 14 14 16 16 17 15 17 18 18 18 19 19 21 21 20 20 19 19 20 20 20 20 19 19 20 20 20 21 22 21 21
11 11 11 11 10 14 17 19 16 18 22 23 24 24 23 23 22 20 20 20 18 16 13 14 14 13 13 15 16 16 16 17 17 18 19 20 19 20 19 19 20 19 18 19 18 15 14 14 14 15 17 17 18 20
11 11 10 10 11 14 18 21 21 22 23 23 24 24 23 23 21 22 21 21 17 13 13 13 13 12 13 15 15 16 16 16 16 15 16 16 18 19 19 19 18 17 17 17 16 14 14 14 14 16 15 16 18 20
14 12 13 11 13 14 14 18 21 22 22 23 23 23 20 20 21 22 21 20 18 14 13 12 12 12 12 12 13 15 15 14 15 14 13 14 16 15 14 14 15 14 14 15 15 15 14 14 14 15 17 20 23 23
11 11 14 16 14 14 16 20 20 22 21 22 24 22 20 20 22 22 20 21 18 15 14 14 13 12 11 12 13 12 12 13 13 13 13 13 13 13 13 13 13 14 13 13 14 13 13 15 15 16 16 21 21 20
11 15 17 18 15 16 22 21 22 22 23 22 21 21 21 20 23 21 20 20 20 17 16 16 17 15 13 13 13 13 13 13 13 13 14 13 12 12 13 13 13 13 13 13 13 13 14 14 15 18 21 20 19 19
12 13 14 11 19 20 21 22 22 23 21 22 22 21 20 21 20 20 21 21 18 20 19 18 18 18 18 18 16 16 15 15 15 13 13 14 14 14 14 13 13 14 14 14 15 16 16 18 18 17 19 21 22 23
13 17 13 21 22 21 22 22 22 21 22 22 22 23 23 20 20 20 21 21 20 22 20 20 21 21 20 19 19 19 20 19 19 19 19 19 19 19 19 18 19 18 17 19 19 20 21 21 22 22 22 22 22 23
13 19 21 22 22 23 23 24 24 23 21 21 23 22 22 20 21 19 22 23 21 22 22 22 22 22 22 22 20 20 21 21 20 21 21 20 20 20 19 19 19 20 20 21 21 21 22 22 22 23 23 23 22 23
18 20 21 22 22 23 22 21 21 22 23 23 23 21 21 21 20 21 22 22 22 22 22 23 22 23 23 23 22 21 22 22 21 22 22 22 21 21 20 19 19 18 17 18 20 20 21 21 21 21 21 21 21 21
19 21 22 21 22 23 22 22 22 24 24 24 21 21 21 21 23 23 22 22 22 23 23 23 23 23 23 23 23 19 18 20 22 21 22 22 23 22 22 21 21 21 20 18 18 18 18 19 20 20 20 20 20 19
20 22 22 22 22 22 23 24 23 24 25 24 24 23 20 20 21 22 22 22 23 23 23 22 23 24 23 23 24 23 21 21 20 23 23 23 23 22 22 21 21 21 21 21 20 19 18 19 19 19 19 19 19 19
23 23 22 23 23 24 23 25 25 24 24 23 23 21 20 21 21 21 22 22 22 22 23 23 23 24 24 24 24 24 24 23 22 23 23 23 22 22 21 21 21 21 20 20 20 20 20 19 19 18 18 18 17 18
22 22 22 22 22 24 24 24 23 22 23 23 23 23 22 22 20 20 21 21 22 22 20 22 23 22 23 23 23 22 22 22 22 22 22 22 21 21 21 21 21 20 20 19 19 19 19 18 18 18 17 17 17 16
23 23 24 22 21 22 23 23 20 21 22 22 23 23 22 22 20 22 21 20 21 22 22 22 22 22 22 22 22 22 22 21 20 20 20 20 20 20 20 21 21 20 20 20 20 19 18 18 18 17 17 16 16 16
Height
838 835 832 829 826 822 819 815 811 807 803 800 798 796 794 793 791 790 784 783 782 765 746 741 738 736 733 729 730 714 720 713 706 713 703 697 692 699 748 726 684 691 714 719 692 690 699 632 645 667 653 640 630 638
837 834 830 827 824 821 817 814 810 806 803 799 796 794 793 792 791 790 785 782 783 779 749 743 740 736 731 728 725 715 712 710 696 698 693 687 707 736 750 745 667 690 702 739 746 717 700 647 647 647 643 653 653 657
835 832 829 826 822 819 815 812 808 804 801 798 795 792 791 790 790 789 786 783 781 769 744 727 718 718 723 726 728 726 715 707 704 697 700 698 710 706 722 712 683 700 695 722 747 725 695 652 652 652 653 661 662 666
833 830 827 824 820 817 813 809 806 802 798 795 792 790 788 787 787 786 785 782 783 772 753 714 713 716 717 717 719 721 719 712 706 701 705 699 701 693 686 677 706 701 702 712 707 711 668 656 656 662 664 666 668 672
831 828 825 821 818 814 810 806 802 798 794 790 787 785 784 783 782 781 780 779 780 778 751 731 718 707 704 708 711 714 716 715 711 710 705 699 686 693 692 678 683 677 678 693 685 666 665 662 662 666 670 673 676 679
827 825 822 818 815 811 807 802 798 794 790 787 784 781 778 777 778 779 765 771 776 779 773 737 708 704 702 704 707 708 709 710 709 708 704 691 681 692 686 684 671 660 661 662 665 670 666 664 664 666 673 678 680 681
823 821 818 815 812 807 803 799 794 790 787 783 779 774 770 770 773 771 768 774 774 778 772 743 707 692 700 699 699 701 703 703 703 701 700 694 683 685 688 687 666 669 670 672 673 677 679 672 669 672 677 681 685 683
818 817 815 812 808 804 799 795 790 786 783 779 774 771 767 768 772 770 772 773 776 775 766 749 714 694 690 692 695 693 696 698 696 695 689 687 683 682 689 679 669 664 666 672 672 671 669 672 675 678 680 682 685 685
814 812 810 808 804 800 796 790 785 782 779 775 772 772 773 770 769 772 772 774 776 779 765 739 716 715 698 687 696 692 688 696 685 691 687 680 681 685 677 678 674 671 672 673 670 671 673 676 679 680 682 682 683 682
810 808 806 804 800 796 792 787 783 779 775 773 772 770 765 768 771 773 774 774 775 770 768 747 722 713 694 691 702 698 696 688 691 679 671 680 674 664 665 672 677 679 679 679 683 682 680 682 679 677 677 677 679 679
805 803 801 799 796 792 788 784 781 777 773 770 761 755 767 769 771 768 758 757 759 755 755 746 731 723 702 708 711 698 698 695 700 687 678 678 674 672 674 677 679 682 683 682 680 678 677 674 674 673 673 675 678 682
800 799 797 794 792 788 785 782 779 777 774 774 772 770 767 760 747 746 742 747 749 753 749 746 734 723 714 706 708 689 695 686 694 678 695 695 688 677 678 679 680 681 680 678 676 675 674 673 670 668 669 675 679 684
796 794 792 790 787 783 782 779 776 774 773 774 772 760 750 744 754 744 737 737 747 739 731 732 730 723 718 713 708 702 697 686 670 685 682 690 686 680 681 680 680 678 677 675 671 668 668 669 669 667 668 675 679 690
791 789 787 785 783 781 778 775 772 772 773 759 748 761 740 740 735 728 734 734 729 727 727 725 723 725 717 720 713 708 693 683 692 690 685 689 685 684 684 682 681 679 676 673 670 666 664 664 664 664 667 673 681 687
786 784 782 778 778 777 775 771 769 772 765 749 743 749 735 725 732 728 724 725 725 722 718 719 713 710 709 707 688 680 684 686 676 686 690 690 688 688 687 686 683 680 677 675 672 668 661 660 660 664 668 675 683 688
782 779 776 776 775 773 770 769 770 769 759 748 739 730 724 722 721 720 715 718 713 715 714 707 707 707 705 697 690 685 678 680 688 687 691 689 691 692 691 689 687 683 679 673 671 672 665 660 660 663 670 677 684 690
779 777 774 774 772 770 768 769 768 764 751 740 728 718 717 716 723 715 714 721 719 715 721 717 716 704 694 695 692 690 694 693 688 685 684 689 690 690 690 688 686 682 680 674 673 672 666 664 662 668 673 681 685 691
775 774 772 771 769 768 765 764 757 745 742 727 722 719 715 713 715 714 721 722 719 719 721 724 724 711 703 698 695 700 691 686 684 685 682 683 686 687 687 685 683 680 675 672 670 670 668 667 667 672 676 681 685 692
772 771 769 767 767 767 756 751 752 740 722 710 711 713 712 712 713 717 720 721 721 725 727 727 724 714 713 705 709 703 698 696 693 689 686 683 682 682 682 681 680 676 674 672 670 670 669 669 670 673 677 682 687 692
766 764 762 762 764 762 751 743 747 740 722 712 711 710 709 710 713 717 717 716 721 724 729 728 725 723 720 713 709 705 702 697 695 690 685 680 680 677 677 678 675 673 675 672 672 675 677 680 679 670 681 687 691 695
763 762 761 762 763 759 747 733 729 724 714 711 706 707 707 708 713 710 711 714 725 733 731 730 727 722 717 710 705 702 698 696 694 694 690 686 681 676 675 673 674 673 673 673 676 679 681 680 674 693 693 691 692 695
761 761 759 759 757 754 750 737 727 719 718 708 706 703 715 717 713 705 710 712 722 732 732 729 724 718 711 705 701 696 693 692 689 688 688 686 681 680 678 677 673 674 675 674 676 680 683 686 687 687 689 688 686 688
760 759 755 750 752 749 740 726 725 716 718 706 700 707 713 714 705 707 712 711 721 727 727 726 725 720 715 709 702 699 697 694 693 692 692 690 688 685 682 680 679 678 677 673 673 679 683 688 689 691 688 687 690 695
757 753 743 739 746 737 717 718 713 710 703 706 709 710 709 711 702 707 709 711 712 721 722 722 720 719 719 711 711 709 708 705 702 701 699 697 695 695 692 688 686 685 682 678 674 678 684 688 689 684 685 689 691 696
756 749 747 748 726 723 714 708 706 704 709 705 702 706 709 703 709 709 708 706 713 712 716 719 718 714 714 711 711 710 708 707 705 707 706 704 703 702 702 702 698 695 695 693 693 692 692 690 688 687 686 687 689 691
749 733 738 714 709 712 703 704 704 706 704 705 702 697 697 706 706 708 703 703 708 707 711 711 707 706 708 710 709 707 705 705 704 704 702 703 701 700 700 699 696 695 695 694 693 692 691 689 687 687 690 692 694 694
744 719 711 709 702 698 699 695 694 697 704 706 697 697 699 705 703 709 698 700 702 704 707 705 704 704 704 704 707 706 704 704 705 704 703 703 704 705 705 704 703 701 699 698 697 696 694 694 693 692 693 695 698 698
719 710 708 701 702 698 702 705 702 702 695 692 695 703 702 700 707 702 700 701 703 705 705 704 705 704 703 702 703 705 704 704 707 703 703 705 707 708 709 709 709 708 707 706 704 703 702 702 702 702 702 702 705 705
711 702 701 701 696 695 696 697 698 690 686 690 700 701 701 697 696 697 700 703 704 701 701 701 702 703 702 703 699 704 709 707 705 709 706 706 706 708 709 710 710 710 711 713 713 712 710 710 708 707 708 709 711 711
702 695 695 696 694 695 690 685 690 685 685 688 691 691 699 702 699 700 702 704 701 701 702 704 701 700 702 702 700 702 704 707 706 703 705 708 709 711 713 714 714 715 714 712 713 715 715 714 715 715 715 714 714 715
687 687 691 686 685 681 685 681 683 686 688 689 691 694 699 699 701 702 701 701 702 702 702 702 701 701 701 701 701 703 706 708 709 709 709 711 713 715 716 717 717 718 718 719 718 718 718 720 721 722 724 723 723 722
687 687 687 687 685 680 682 683 685 689 689 690 689 690 693 694 702 703 702 704 704 702 705 704 704 709 705 704 706 709 710 712 714 715 715 716 718 719 718 719 720 722 723 724 724 724 725 726 727 728 729 729 729 731
682 681 678 682 686 684 683 685 694 692 688 686 687 687 688 694 698 695 699 702 703 701 703 704 706 708 708 710 710 712 713 716 718 719 721 722 722 722 720 720 722 723 724 724 726 728 730 731 733 734 734 735 736 736
Wind_Speed
14 14 15 16 17 18 18 18 20 21 20 16 12 12 9 8 10 8 8 5 8 6 16 21 19 17 12 11 11 1 5 10 10 14 15 16 15 3 8 28 10 14 4 1 17 17 19 11 13 12 2 2 10 12
15 16 16 17 17 18 18 18 19 20 20 19 14 10 9 8 7 6 8 3 7 7 10 29 29 29 25 21 13 13 14 11 3 9 10 10 4 6 8 8 14 12 7 5 4 12 35 5 4 8 5 8 8 11
16 17 17 18 19 19 20 20 20 20 20 20 17 13 10 9 7 7 11 10 10 7 13 13 12 14 15 26 24 13 11 11 11 9 9 6 5 7 14 19 12 5 21 8 8 24 34 10 9 7 10 9 7 9
15 17 18 19 20 21 21 21 21 21 22 23 18 14 13 11 9 10 11 8 7 7 5 2 3 8 10 14 16 23 23 19 10 8 9 10 7 5 13 11 4 5 8 13 11 25 21 9 11 9 9 7 8 7
15 17 18 20 21 22 23 23 23 24 26 20 16 14 13 13 12 12 15 15 14 8 6 9 28 22 16 14 14 17 18 16 11 9 10 11 11 1 12 10 7 13 6 5 1 9 8 10 9 5 6 6 6 6
16 17 18 20 22 23 24 25 24 26 18 16 17 21 20 14 8 5 4 9 14 12 4 5 8 10 10 8 10 10 11 10 10 11 10 12 15 1 8 8 15 4 6 7 8 7 5 5 7 7 8 6 5 3
16 17 18 20 22 23 25 25 25 25 17 20 25 24 17 9 12 5 6 3 11 11 3 6 5 9 10 7 7 6 12 8 8 10 11 12 11 6 10 15 11 3 1 2 6 0 3 2 4 5 5 5 2 3
16 17 18 20 22 24 26 27 28 22 19 24 20 9 6 9 8 5 8 4 11 5 4 4 6 8 12 8 6 5 6 8 8 9 9 10 11 12 12 14 17 14 4 3 7 4 5 6 3 4 3 4 4 5
16 17 18 20 22 24 26 28 23 19 21 16 7 3 1 2 1 4 3 9 8 2 4 5 11 5 7 8 4 5 6 7 6 8 12 9 9 10 8 16 12 11 14 7 7 3 4 5 6 6 7 7 7 6
16 16 18 20 22 24 26 22 21 19 13 6 2 7 1 5 7 7 2 4 3 5 3 5 11 13 11 5 5 4 3 6 6 9 7 11 11 6 8 3 2 4 6 7 9 9 7 7 7 9 10 9 7 5
16 17 18 20 22 24 24 17 17 20 2 5 3 3 7 3 5 4 3 4 2 3 1 4 9 9 9 8 2 4 2 3 4 4 4 5 12 5 6 1 0 3 7 11 12 13 14 14 11 11 10 7 6 7
16 17 18 20 22 22 14 15 20 9 6 5 6 5 4 5 5 4 3 3 3 3 3 3 6 8 6 3 3 4 4 5 3 2 2 4 3 6 3 2 2 4 7 9 10 13 14 13 15 11 9 9 9 11
15 17 19 21 23 17 11 19 16 8 1 3 4 3 3 3 2 5 2 2 2 4 4 4 6 3 4 2 4 3 4 5 0 2 6 4 4 5 5 4 5 6 8 9 10 10 11 14 17 14 10 12 14 13
15 18 20 21 18 7 17 22 11 1 4 4 4 3 4 4 3 3 4 6 5 6 6 7 6 3 3 3 3 3 4 3 3 3 2 5 4 5 5 6 7 8 10 10 10 10 10 12 14 15 14 15 15 14
15 18 21 18 7 12 22 15 1 3 5 4 3 4 4 3 4 6 2 4 3 7 7 6 8 7 5 5 4 3 3 5 5 2 3 4 4 5 7 8 10 10 10 9 9 11 9 11 12 12 17 17 16 15
15 17 6 5 10 20 19 3 2 3 4 3 5 7 6 5 3 6 5 7 6 6 6 6 5 4 5 4 4 6 5 1 3 3 4 3 5 6 8 9 10 11 12 12 8 12 11 9 13 13 17 17 16 15
12 5 6 11 18 16 5 3 3 4 4 3 6 6 6 6 3 7 7 5 8 7 4 4 4 3 4 4 3 5 3 4 4 4 3 4 6 8 8 9 10 10 12 12 10 13 14 12 11 15 13 16 17 14
6 7 9 16 18 7 3 6 5 4 7 8 7 2 4 6 8 8 5 3 5 4 4 2 4 4 4 4 3 2 5 6 6 7 7 6 7 9 9 11 10 13 12 14 12 9 14 13 11 10 17 18 17 15
10 14 19 16 5 4 3 5 3 4 7 5 4 3 4 5 7 6 4 3 2 3 3 2 3 3 3 3 7 10 9 8 9 9 10 10 10 10 11 12 16 13 13 12 11 4 5 9 16 17 17 17 14 16
17 15 13 6 5 4 4 3 4 4 5 2 4 6 5 3 2 2 3 5 4 2 1 2 2 3 5 10 11 9 9 9 8 9 10 7 8 9 7 10 10 11 11 8 3 13 15 12 8 18 21 13 9 6
9 5 3 4 6 7 4 3 5 5 6 4 5 4 4 1 3 3 3 4 4 2 3 2 5 6 9 11 14 12 9 7 7 7 9 9 8 12 10 13 13 12 6 3 3 7 13 15 19 4 11 13 16 22
3 5 4 4 4 4 4 7 5 6 3 7 5 4 1 3 5 2 0 2 3 1 2 2 5 8 8 7 7 9 10 10 13 11 11 11 6 4 3 6 3 5 4 2 10 10 12 14 22 23 17 13 12 10
4 5 5 6 4 3 6 5 5 3 4 3 4 2 2 2 1 2 1 3 3 3 4 2 3 12 8 16 17 22 19 17 9 7 11 10 12 12 13 14 11 5 5 7 15 17 15 16 20 11 11 15 13 4
4 4 4 5 6 5 4 5 5 4 3 4 2 3 1 1 3 2 3 2 5 7 5 6 2 3 2 5 5 5 12 14 12 11 13 14 9 11 19 19 23 22 22 23 25 23 12 10 14 19 6 15 24 26
3 4 4 5 5 5 6 8 8 6 4 6 7 2 2 3 2 3 4 4 5 5 3 3 5 2 4 4 4 6 10 8 5 7 9 12 13 14 16 19 18 14 16 15 11 10 3 4 3 5 18 12 6 6
5 6 6 6 6 5 4 3 3 4 4 3 3 2 1 3 3 3 3 6 5 5 5 7 5 3 5 3 2 2 2 1 3 5 8 10 13 13 8 6 4 5 11 9 3 6 9 9 11 12 12 9 6 4
5 6 6 5 5 3 4 4 2 3 1 3 3 1 3 4 2 2 4 4 3 7 4 1 2 4 5 8 6 2 10 11 12 10 14 15 16 14 14 11 10 15 15 16 15 14 12 9 7 6 7 8 6 5
6 4 9 8 7 7 6 5 3 3 2 1 3 1 3 3 2 2 4 5 5 4 4 3 4 2 5 3 6 10 10 15 9 12 15 16 15 16 16 16 18 21 21 19 13 11 9 9 8 8 8 10 9 7
6 6 7 10 7 6 5 5 3 4 2 1 1 4 4 4 5 5 8 9 8 11 7 6 6 8 8 5 2 32 7 8 13 8 8 7 8 14 14 14 15 14 15 18 19 18 16 15 15 12 11 11 11 11
10 8 7 10 11 7 5 4 2 1 2 4 2 2 2 2 1 7 9 8 8 6 6 2 2 1 5 5 6 9 19 13 4 6 8 7 10 13 13 14 14 15 15 13 13 11 5 12 14 13 13 12 11 12
3 7 8 10 9 6 3 4 2 1 1 2 2 2 3 5 6 7 9 7 6 4 5 3 4 2 6 7 5 7 7 10 11 10 10 13 13 11 11 11 13 14 16 15 14 13 14 15 16 15 14 13 12 13
6 8 7 9 3 5 2 4 4 3 4 4 2 3 4 4 4 4 10 11 9 7 2 2 6 8 3 6 9 10 10 10 9 9 6 10 9 6 5 9 11 13 13 14 15 14 14 15 15 15 15 14 13 12
8 8 9 2 1 4 2 2 1 3 4 4 3 3 6 6 4 4 9 12 11 11 9 7 7 9 7 6 8 7 7 11 8 8 7 7 6 4 7 7 7 6 7 9 11 12 11 10 10 10 11 10 9 8
Wind_Direction
337 336 338 340 343 345 348 350 353 355 356 349 345 343 338 337 336 347 304 293 295 281 287 283 280 269 267 247 262 40 270 236 257 225 254 263 263 350 155 249 238 227 197 305 255 221 242 224 133 200 199 303 211 145
344 340 338 337 337 339 341 345 346 348 351 350 340 332 329 327 321 326 286 291 300 258 286 304 285 267 263 266 286 287 268 306 267 253 270 279 335 10 4 279 258 230 155 124 74 317 302 318 58 76 104 101 93 111
343 342 342 339 338 336 336 337 338 338 339 338 334 321 313 309 308 272 289 299 288 264 278 247 253 228 232 234 247 257 258 271 272 293 304 285 280 202 221 216 235 193 143 123 100 308 294 107 103 108 112 116 111 114
335 339 340 339 338 337 334 333 333 332 329 325 320 312 305 303 296 274 256 278 256 280 278 334 150 188 217 219 224 233 250 276 281 278 272 267 256 249 273 302 21 359 46 325 200 206 259 97 102 102 95 107 100 88
317 328 334 337 335 336 335 332 331 330 331 325 324 318 305 296 292 274 257 246 240 272 315 311 304 277 249 236 229 227 233 239 251 254 249 249 259 106 259 261 262 238 179 218 185 19 303 111 112 101 106 92 92 101
304 315 322 328 332 333 333 331 330 332 333 334 328 318 307 290 272 256 232 191 213 210 279 293 349 273 234 207 222 223 218 223 235 242 250 266 258 238 277 282 290 278 313 343 351 20 331 69 114 138 119 127 130 128
297 305 317 323 329 330 331 329 327 329 327 329 324 317 308 260 195 249 11 82 170 174 250 286 272 174 230 220 225 218 211 220 228 236 244 260 257 226 260 271 266 138 184 12 309 147 211 201 131 115 115 130 168 105
296 299 312 320 325 329 329 327 325 324 327 330 323 353 32 135 184 251 214 189 165 239 261 276 272 262 172 218 222 190 212 207 209 240 236 231 235 244 254 273 278 283 265 255 300 286 301 31 72 154 185 162 190 184
296 297 306 316 323 327 328 327 327 327 334 327 322 138 285 241 47 50 174 166 185 282 291 260 279 334 304 250 144 214 217 214 234 216 236 241 227 228 231 236 262 260 261 287 312 284 276 206 203 219 212 210 221 213
296 297 304 312 320 326 327 327 328 330 336 317 188 215 221 76 128 131 183 172 204 199 226 263 281 278 289 328 331 163 263 250 219 219 236 228 250 263 190 139 341 326 312 280 270 263 230 250 264 244 225 227 227 214
292 297 303 310 318 325 326 328 331 338 346 237 278 24 88 153 175 204 221 231 132 253 329 303 304 310 315 327 311 255 240 252 229 249 233 251 233 129 97 146 309 314 287 275 269 262 268 271 227 228 222 221 194 171
289 297 303 310 316 323 318 325 327 337 341 313 306 293 241 221 229 242 200 171 227 224 217 227 293 312 290 334 271 255 226 204 254 133 162 259 68 104 94 46 9 313 298 286 272 260 259 255 263 252 208 195 176 159
288 297 302 309 316 311 307 325 327 306 319 218 238 243 197 241 350 247 237 209 220 222 235 228 286 275 301 334 270 292 258 260 25 209 215 131 130 72 37 5 342 320 318 310 292 274 259 247 242 240 195 192 161 151
286 296 304 307 309 292 325 329 322 221 226 243 214 271 244 231 236 312 320 287 262 276 283 285 283 238 217 227 234 234 274 295 250 260 318 102 68 47 13 1 334 331 328 325 312 299 267 234 225 213 188 175 163 170
285 297 305 303 247 305 325 323 272 199 268 258 238 249 218 298 23 303 349 301 257 260 299 291 263 229 228 237 268 254 214 219 213 89 94 108 57 10 356 348 340 335 328 316 319 305 282 224 204 185 182 162 169 161
297 310 259 258 297 317 323 317 230 247 244 250 242 254 240 273 298 260 335 335 357 331 311 276 265 250 232 261 261 232 260 356 58 62 8 2 24 346 335 334 329 316 314 306 310 298 274 247 195 175 160 165 156 162
301 258 266 298 308 326 313 211 219 226 279 249 233 243 291 296 287 306 340 338 335 316 340 306 265 280 293 247 240 349 355 355 331 306 293 323 305 311 312 309 300 312 303 303 302 290 271 256 177 138 154 159 160 152
270 281 297 305 315 309 229 206 240 232 234 231 249 224 295 297 295 340 339 330 306 331 325 318 308 273 280 302 328 341 299 293 302 300 296 315 303 308 298 291 296 296 291 304 297 276 281 223 178 164 155 158 146 145
270 280 288 295 275 280 256 197 237 262 246 273 283 284 267 309 348 359 341 309 353 33 317 292 274 294 279 347 339 327 323 328 325 326 310 301 282 280 285 292 286 293 292 301 297 314 284 208 171 131 133 137 141 147
295 298 293 238 189 248 242 207 190 270 277 346 282 266 292 354 309 3 350 20 31 36 347 310 299 305 301 315 312 298 304 311 304 298 295 289 290 318 315 281 291 298 288 299 309 111 87 61 37 91 102 95 105 139
303 237 292 145 207 244 294 278 218 237 295 276 282 292 308 22 288 250 46 72 64 19 340 305 291 289 289 286 286 282 284 275 284 286 287 294 298 303 293 296 298 286 259 245 143 132 135 138 118 186 151 155 180 189
249 261 245 207 236 218 262 250 273 335 267 274 286 255 251 254 261 96 25 89 86 138 243 266 300 306 308 319 322 313 312 300 284 287 301 302 302 328 335 345 354 72 48 241 162 153 144 151 160 196 225 225 165 124
273 221 231 209 231 227 265 213 244 232 247 258 255 182 207 220 256 163 26 56 89 133 205 277 312 318 336 346 22 47 37 52 60 58 55 49 49 37 39 51 42 69 46 24 138 119 116 157 201 217 244 159 142 96
241 250 233 207 201 253 211 215 211 268 252 261 266 271 86 184 236 234 161 121 127 143 192 197 14 24 216 295 37 54 52 69 68 49 60 67 59 51 49 42 57 59 55 44 63 70 81 124 214 224 137 155 182 203
232 247 198 244 226 226 245 229 217 231 256 242 276 58 256 155 230 216 152 153 100 106 164 192 258 323 64 81 72 117 138 124 127 123 106 93 98 92 82 76 74 69 91 103 103 93 85 261 186 117 48 25 94 139
242 209 198 220 207 212 234 237 211 239 262 283 247 219 248 191 237 153 168 130 140 126 168 174 186 105 82 89 73 3 51 146 107 55 59 111 87 69 72 92 103 179 181 138 114 90 90 72 51 68 104 88 35 322
248 232 199 241 288 245 259 265 250 286 223 252 266 246 221 240 141 140 142 131 118 103 96 207 38 72 99 102 86 34 83 83 94 96 101 91 91 91 85 69 40 39 48 55 56 56 55 62 68 88 119 99 73 28
248 265 238 216 211 246 237 268 207 249 237 131 334 296 257 9 70 160 152 146 110 150 117 136 120 51 64 66 141 181 135 111 102 119 108 101 94 89 84 83 79 66 59 49 48 54 65 70 71 67 62 60 51 10
234 223 232 253 226 219 223 221 227 243 166 108 259 321 344 8 166 164 138 156 178 202 181 146 150 164 151 159 326 108 248 288 128 120 108 102 90 77 74 76 66 69 73 71 62 61 64 58 45 56 66 66 68 57
231 236 219 223 222 218 232 188 305 311 36 18 314 271 95 357 319 138 154 181 190 191 141 151 256 86 146 171 95 96 139 120 265 118 109 107 98 85 77 71 66 59 50 57 77 80 83 79 69 59 53 56 62 67
229 195 221 240 215 214 193 218 120 108 197 309 18 42 127 158 162 188 192 184 179 207 186 198 187 46 75 73 83 112 90 78 78 81 96 101 92 80 73 73 70 60 58 63 59 69 81 76 68 61 56 59 54 52
214 218 208 228 201 150 140 218 187 185 222 205 177 142 154 146 133 199 190 196 212 210 148 271 161 128 113 86 90 68 62 104 118 122 122 99 99 96 101 90 76 69 74 67 61 66 72 69 63 61 62 57 56 68
218 206 227 183 165 163 230 158 175 243 262 233 175 217 160 177 179 166 169 197 209 212 188 194 142 168 120 85 96 100 96 89 105 99 91 75 65 25 344 75 74 68 78 78 89 92 86 80 79 75 70 66 66 65